Weather Roundup
Issued by NWS

Home | Current Version | Previous Version | Text Only | Print | Product List | Glossary On
Versions: 1 2 3 4 5 6 7 8 9 10 11 12 13 14 15 16 17 18 19 20 21 22 23 24 25 26 27 28 29 30 31 32 33 34 35 36 37 38 39 40 41 42 43 44 45 46 47 48 49 50
000
NZUS93 KARX 291910
HRRWXR

CURRENT HOURLY OBSERVATIONS ACROSS
MUCH OF THE UPPER MISSISSIPPI VALLEY
NATIONAL WEATHER SERVICE LA CROSSE WI
100 PM CST THU JAN 29 2015


...SOUTHEAST MINNESOTA...


CITY           SKY/WX    TMP DP  RH WIND       PRES   REMARKS
ROCHESTER      CLOUDY    30  23  75 NW25G33   30.17R WCI  16
ROCHESTER/MAYO CLOUDY    31  22  69 NW26G32   30.16S WCI  17
WINONA         CLOUDY    34  27  75 NW17G28   30.15S WCI  23
AUSTIN         CLOUDY    30  25  80 NW24G33   30.20S WCI  16
ALBERT LEA     CLOUDY    30  25  80 NW17G25   30.23S WCI  18
DODGE CENTER   CLOUDY    30  27  86 NW17G29   30.19R WCI  18
PRESTON        CLOUDY    30  24  78 NW16G25   30.16R WCI  19
OWATONNA       PTSUNNY   30  25  80 NW25      30.23S WCI  16
FARIBAULT      PTSUNNY   30  23  74 NW14G25   30.24S WCI  20
$$

...ELSEWHERE IN MINNESOTA...


CITY           SKY/WX    TMP DP  RH WIND       PRES   REMARKS
MINNEAPOLIS    CLOUDY    30  19  63 NW25G32   30.25R WCI  16
INTNL FALLS    CLOUDY    11   3  70 NW15      30.30R WCI  -5
DULUTH         LGT SNOW  20  10  65 NW15G29   30.17R WCI   6
RED WING       CLOUDY    34  21  60 NW20G26   30.19R WCI  22
REDWOOD FALLS  CLOUDY    26  18  71 NW18G32   30.37S WCI  13
MANKATO        CLOUDY   N/A N/A N/A NW28G35   30.27F
WORTHINGTON    CLOUDY    28  19  69 N22G29    30.37R WCI  15
FAIRMONT       CLOUDY    30  21  69 NW28G38   30.30R WCI  16
$$

...SOUTHWEST WISCONSIN...


CITY           SKY/WX    TMP DP  RH WIND       PRES   REMARKS
LA CROSSE      CLOUDY    37  25  61 NW18      30.11R WCI  27
PRAIRIE DU CHI CLOUDY    36  25  64 NW18G32   30.11R WCI  25
BOSCOBEL       CLOUDY    37  25  61 NW14G22   30.10R WCI  28
LONE ROCK      CLOUDY    36  25  64 NW17G28   30.05R WCI  26
PLATTEVILLE    CLOUDY    35  28  75 NW26      30.05R WCI  22
FORT MC COY    CLOUDY    34  24  68 NW17G25   30.09S WCI  23
CAMP DOUGLAS   CLOUDY    34  28  80 NW16G25   30.04R WCI  23
VIROQUA        CLOUDY    32  27  81 NW17G28   30.07R WCI  21
WIS DELLS      CLOUDY    33  24  70 NW18G25   30.02R WCI  22
$$

...ELSEWHERE IN WISCONSIN...


CITY           SKY/WX    TMP DP  RH WIND       PRES   REMARKS
MILWAUKEE      CLOUDY    34  25  69 NW16G25   29.94R WCI  24
MADISON        CLOUDY    34  25  69 NW18G33   30.00R WCI  23
GREEN BAY      CLOUDY    34  25  69 NW20G25   29.93R WCI  23
EAU CLAIRE     CLOUDY    33  21  61 NW9G21    30.12S WCI  25
BLACK RVR FLS  CLOUDY    35  23  62 NW15G21   30.08S WCI  25
MEDFORD        CLOUDY    31  19  61 NW24G33   30.01R WCI  18
WAUSAU         CLOUDY    32  20  61 N21G31    29.97R WCI  20
WIS RAPIDS     CLOUDY    33  21  61 NW21G32   30.03R WCI  21
MARSHFIELD     CLOUDY    33  22  63 NW18      30.02R WCI  22
RICE LAKE      CLOUDY    31  20  65 NW17      30.16R WCI  19
$$

...NORTHEAST IOWA...


CITY           SKY/WX    TMP DP  RH WIND       PRES   REMARKS
DECORAH        CLOUDY    32  27  80 NW15G33   30.13R WCI  22
MASON CITY     CLOUDY    31  25  78 NW28G37   30.25R WCI  17
CHARLES CITY   CLOUDY    32  28  86 NW25      30.20R WCI  19
OELWEIN        CLOUDY    32  28  86 NW21G29   30.16S WCI  20
$$

...ELSEWHERE IN IOWA...


CITY           SKY/WX    TMP DP  RH WIND       PRES   REMARKS
DES MOINES     CLOUDY    37  25  61 N17       30.29S WCI  27
IOWA CITY      CLOUDY    35  28  75 NW22G35   30.18R WCI  23
FORT DODGE     CLOUDY    36  27  69 NW17G28   30.31R WCI  25
$$

...NORTHERN ILLINOIS...


CITY           SKY/WX    TMP DP  RH WIND       PRES   REMARKS
CHICAGO-OHARE  CLOUDY    33  26  75 NW16G25   29.95R WCI  23
CHICAGO-MIDWAY CLOUDY    35  27  72 NW18      29.96R WCI  24
MOLINE         CLOUDY    36  31  82 NW18      30.10R WCI  26
ROCKFORD       CLOUDY    34  26  72 NW16G28   30.02R WCI  24
PEORIA         CLOUDY    38  30  73 NW14G29   30.08R WCI  30
$$

NOTE: "FAIR" INDICATES FEW OR NO CLOUDS BELOW 12,000 FEET WITH NO
SIGNIFICANT WEATHER AND/OR OBSTRUCTIONS TO VISIBILITY. WIND
SPEEDS ARE IN MILES-PER-HOUR.



USA.gov is the U.S. government's official web portal to all federal, state and local government web resources and services.